Location: Alincthun
(50.7310°N, 1.8022°E)
Time: 08:16:30
(UTC+00:00)

COSMO-SKYMED 1 - Pass Details

Date: 17 February 2020
Orbit: 621 x 623 km, 97.9° (Epoch: 03 April)

Event Time Altitude Azimuth Distance (km) Brightness Sun altitude
Rises 04:00:20 0° 135° (SE) 2,898 6.3 -29.2°
Reaches altitude 10° 04:02:43 10° 125° (SE) 1,996 5.6 -28.8°
Maximum altitude 04:06:29 30° 65° (ENE) 1,132 4.4 -28.3°
Drops below altitude 10° 04:10:17 10° 4° (N) 2,009 5.4 -27.7°
Sets 04:12:41 0° 354° (N) 2,921 6.1 -27.3°
